This is the latest recevied weather packets stored in our database for station/object WD4IXD-WX. If no packets are shown the sender has not sent any weather packets the latest 10 day(s).
| Time | Temp. | Humidity | Pressure | Rain* | Wind** | Luminosity | Snow |
|---|---|---|---|---|---|---|---|
| 1777898404 | 1.67° C | 53% | 1017.3 hPa | 0 mm | - | 40 W/m² | - |
| 1777898104 | 1.67° C | 53% | 1017.4 hPa | 0 mm | - | 30 W/m² | - |
| 1777897804 | 1.67° C | 53% | 1017.4 hPa | 0 mm | - | 19 W/m² | - |
| 1777897504 | 1.67° C | 53% | 1017.4 hPa | 0 mm | - | 16 W/m² | - |
| 1777897204 | 1.67° C | 53% | 1017.4 hPa | 0 mm | - | 12 W/m² | - |
| 1777896904 | 1.67° C | 52% | 1017.5 hPa | 0 mm | - | 7 W/m² | - |
| 1777896604 | 1.67° C | 52% | 1017.5 hPa | 0 mm | - | 5 W/m² | - |
| 1777896304 | 2.22° C | 51% | 1017.5 hPa | 0 mm | - | 0 W/m² | - |
| 1777896004 | 1.67° C | 51% | 1017.3 hPa | 0 mm | - | 0 W/m² | - |
| 1777895703 | 1.67° C | 51% | 1017.3 hPa | 0 mm | - | 0 W/m² | - |
| 1777895404 | 1.67° C | 50% | 1017.3 hPa | 0 mm | - | 0 W/m² | - |
| 1777895104 | 1.67° C | 50% | 1017.2 hPa | 0 mm | - | 0 W/m² | - |
| 1777894804 | 1.67° C | 50% | 1017.3 hPa | 0 mm | - | 0 W/m² | - |
| 1777894504 | 2.22° C | 50% | 1017.4 hPa | 0 mm | - | 0 W/m² | - |
| 1777894204 | 2.22° C | 50% | 1017.3 hPa | 0 mm | - | 0 W/m² | - |
| 1777893904 | 2.22° C | 50% | 1017.2 hPa | 0 mm | - | 0 W/m² | - |
| 1777893604 | 2.22° C | 50% | 1017.1 hPa | 0 mm | - | 0 W/m² | - |
| 1777893303 | 2.22° C | 49% | 1017.1 hPa | 0 mm | - | 0 W/m² | - |
| 1777893004 | 2.22° C | 49% | 1017.1 hPa | 0 mm | - | 0 W/m² | - |
| 1777892704 | 2.78° C | 48% | 1017.2 hPa | 0 mm | - | 0 W/m² | - |
| 1777892403 | 2.78° C | 47% | 1017.3 hPa | 0 mm | - | 0 W/m² | - |
| 1777892104 | 2.78° C | 47% | 1017.3 hPa | 0 mm | - | 0 W/m² | - |
| 1777891803 | 2.78° C | 47% | 1017.3 hPa | 0 mm | - | 0 W/m² | - |
| 1777891504 | 2.78° C | 47% | 1017.4 hPa | 0 mm | - | 0 W/m² | - |
| 1777891204 | 2.78° C | 47% | 1017.4 hPa | 0 mm | - | 0 W/m² | - |
* Rain latest hour (hover to see other rain measurements)
** Current wind speed in m/s (hover to see current wind gust speed)